GW6177 Weather Reports


Display with metric or nautical units.
time (UTC)temp
F
wind
direction
speed
MPH
gust
MPH
rain 1hr
in
rain 24hr
in
rain mn
in
humidity
%
barometer
mb
20260505121512 50 358 2.0 4.0 0.05 0.89 0.89 95 1008.3
20260505121009 50 333 1.0 3.0 0.02 0.89 0.89 95 1008.6
20260505120505 50 233 0.0 3.0 0.00 0.89 0.89 95 1008.4
20260505120005 50 29 0.0 2.0 0.00 0.89 0.89 95 1008.2
20260505115500 51 199 0.0 2.0 0.02 0.89 0.89 95 1008.6
20260505114958 50 9 1.0 2.0 0.02 0.89 0.89 95 1008.4
20260505114455 50 332 2.0 2.0 0.00 0.88 0.88 95 1008.0
20260505113952 50 357 0.0 3.0 0.02 0.88 0.88 94 1008.0
20260505113448 50 221 0.0 2.0 0.07 0.88 0.88 95 1007.8
20260505112943 50 334 2.0 2.0 0.09 0.88 0.88 94 1007.7
20260505112441 51 0 0.0 0.0 0.05 0.87 0.87 94 1007.9
20260505111938 50 236 0.0 1.0 0.02 0.86 0.86 94 1008.1
20260505111432 51 286 2.0 3.0 0.00 0.86 0.86 94 1007.4
20260505110929 51 29 2.0 2.0 0.00 0.86 0.86 94 1007.5
20260505110425 51 62 1.0 2.0 0.02 0.86 0.86 94 1007.7
20260505101856 53 205 3.0 4.0 0.38 0.78 0.78 92 1007.5
20260505101351 53 341 2.0 2.0 0.31 0.76 0.76 93 1007.3
20260505100847 54 13 0.0 2.0 0.14 0.71 0.71 91 1007.3
20260505100344 54 170 2.0 2.0 0.12 0.70 0.70 94 1007.5
20260505095840 55 345 0.0 3.0 0.07 0.69 0.69 95 1007.0
20260505095338 56 266 2.0 4.0 0.09 0.69 0.69 97 1007.1
20260505094833 57 342 2.0 6.0 0.05 0.67 0.67 97 1007.1
20260505094331 57 245 0.0 2.0 0.12 0.67 0.67 97 1006.8
20260505093826 57 228 0.0 1.0 0.07 0.66 0.66 97 1006.3
20260505093324 57 302 2.0 2.0 0.00 0.65 0.65 97 1006.2
20260505092820 57 286 0.0 2.0 0.00 0.65 0.65 97 1005.8
20260505092319 58 10 2.0 2.0 0.00 0.65 0.65 97 1005.7
20260505091816 58 339 2.0 2.0 0.00 0.65 0.65 97 1005.8
20260505091314 58 343 0.0 1.0 0.00 0.65 0.65 97 1005.7
20260505090811 58 288 2.0 2.0 0.00 0.65 0.65 97 1005.5
20260505090309 58 297 1.0 3.0 0.00 0.65 0.65 97 1005.3
20260505085806 58 344 2.0 2.0 0.00 0.65 0.65 97 1005.2
20260505085305 58 337 2.0 3.0 0.00 0.65 0.65 97 1005.1
20260505084801 58 298 2.0 3.0 0.00 0.65 0.65 97 1005.1
20260505084300 58 357 1.0 2.0 0.00 0.65 0.65 97 1005.1
20260505083757 58 280 3.0 5.0 0.00 0.65 0.65 97 1005.2
20260505083253 58 254 2.0 2.0 0.00 0.65 0.65 97 1005.2
20260505082750 58 28 1.0 2.0 0.00 0.65 0.65 97 1004.2
20260505082247 58 105 2.0 3.0 0.02 0.65 0.65 96 1003.4
20260505081743 58 95 2.0 2.0 0.05 0.65 0.65 97 1003.7
20260505081240 58 344 2.0 3.0 0.07 0.64 0.64 96 1004.0
20260505080737 58 81 2.0 4.0 0.12 0.64 0.64 96 1004.5
20260505080232 58 79 2.0 3.0 0.12 0.63 0.63 96 1004.7
20260505075729 59 324 1.0 3.0 0.12 0.62 0.62 96 1004.4
20260505075226 59 332 2.0 3.0 0.14 0.61 0.61 96 1004.6
20260505074723 59 102 2.0 3.0 0.09 0.59 0.59 96 1004.4
20260505074220 59 352 0.0 1.0 0.09 0.59 0.59 96 1004.4
20260505073718 59 122 1.0 2.0 0.14 0.58 0.58 96 1004.5
20260505073216 59 308 3.0 4.0 0.17 0.57 0.57 96 1004.4
20260505072711 59 171 0.0 2.0 0.14 0.56 0.56 96 1004.6
20260505072208 59 38 0.0 2.0 0.14 0.54 0.54 96 1004.7
20260505071703 59 0 2.0 5.0 0.19 0.53 0.53 96 1004.9
20260505071201 59 337 1.0 2.0 0.17 0.52 0.52 96 1005.4
20260505070658 58 36 1.0 4.0 0.09 0.50 0.50 96 1005.9
20260505070154 58 271 2.0 4.0 0.07 0.48 0.48 96 1006.6
20260505065650 58 234 2.0 4.0 0.09 0.48 0.48 95 1006.3
20260505065147 58 237 0.0 1.0 0.09 0.47 0.47 95 1005.8
20260505064644 58 254 0.0 4.0 0.12 0.47 0.47 95 1005.7
20260505064142 57 277 2.0 3.0 0.12 0.45 0.45 94 1005.9
20260505063640 57 269 0.0 4.0 0.17 0.44 0.44 94 1005.9
20260505063136 57 89 0.0 5.0 0.45 0.43 0.43 93 1005.8
20260505062632 58 247 2.0 3.0 0.92 0.41 0.41 93 1005.9
20260505062129 58 298 3.0 9.0 1.06 0.35 0.35 91 1005.9
20260505061626 60 97 2.0 9.0 0.33 0.22 0.22 92 1005.9
20260505061124 59 328 3.0 10.0 0.02 0.17 0.17 91 1005.4
20260505060622 59 233 2.0 8.0 0.02 0.17 0.17 89 1004.1
20260505060119 60 119 7.0 9.0 0.05 0.17 0.17 85 1004.3
20260505055614 61 30 4.0 6.0 0.09 0.16 0.16 85 1004.9
20260505055110 61 130 3.0 5.0 0.05 0.15 0.15 87 1004.2
20260505054608 61 31 3.0 4.0 0.14 0.15 0.15 90 1003.9
20260505054106 62 7 3.0 5.0 0.12 0.14 0.14 86 1003.5
20260505053603 63 106 2.0 6.0 0.47 0.12 0.12 82 1002.9
20260505053059 63 89 0.0 4.0 0.61 0.11 0.11 81 1002.8
20260505052556 65 143 0.0 4.0 0.02 0.01 0.01 75 1003.2
20260505052054 66 308 3.0 6.0 0.07 0.01 0.01 71 1002.6
20260505051551 67 112 6.0 8.0 0.05 0.01 0.01 69 1002.4
20260505051049 67 59 5.0 6.0 0.00 0.00 0.00 67 1002.4
20260505050546 67 156 1.0 10.0 0.00 0.00 0.00 67 1002.4
20260505041514 67 132 4.0 8.0 0.00 0.44 0.44 67 1001.8
20260505041012 67 62 0.0 7.0 0.00 0.44 0.44 67 1002.0
20260505040509 68 84 3.0 5.0 0.00 0.44 0.44 68 1002.1
20260505040006 67 89 7.0 9.0 0.00 0.44 0.44 67 1002.0
20260505035502 67 112 8.0 9.0 0.00 0.44 0.44 68 1002.1
20260505034959 67 15 1.0 5.0 0.00 0.44 0.44 68 1002.0
20260505034455 67 66 3.0 4.0 0.00 0.44 0.44 68 1002.2
20260505033952 67 98 3.0 6.0 0.00 0.44 0.44 69 1002.2
20260505033449 67 57 0.0 7.0 0.00 0.44 0.44 68 1002.4
20260505032947 67 15 3.0 5.0 0.00 0.44 0.44 68 1002.2
20260505032444 68 125 7.0 9.0 0.00 0.44 0.44 67 1002.3
20260505031940 68 78 4.0 6.0 0.00 0.44 0.44 67 1002.2
20260505031438 68 116 4.0 6.0 0.00 0.44 0.44 67 1002.4
20260505030935 68 127 4.0 8.0 0.00 0.44 0.44 67 1002.3
20260505030431 67 89 4.0 8.0 0.00 0.44 0.44 68 1002.2
20260505025926 67 55 2.0 8.0 0.00 0.44 0.44 70 1002.2
20260505025423 68 111 2.0 5.0 0.00 0.44 0.44 68 1002.2
20260505024922 68 77 0.0 5.0 0.00 0.44 0.44 69 1002.2
20260505024419 68 23 2.0 5.0 0.00 0.44 0.44 68 1002.2
20260505023916 67 25 0.0 5.0 0.00 0.44 0.44 69 1002.1
20260505023413 67 98 6.0 6.0 0.00 0.44 0.44 69 1002.1
20260505022910 67 112 2.0 10.0 0.00 0.44 0.44 73 1002.1
20260505022408 67 78 5.0 6.0 0.00 0.44 0.44 71 1002.0
20260505021905 67 87 4.0 8.0 0.00 0.44 0.44 71 1001.8
20260505021401 67 79 1.0 6.0 0.00 0.44 0.44 73 1001.7
20260505020857 66 47 4.0 6.0 0.00 0.44 0.44 73 1002.0
20260505020353 66 74 5.0 6.0 0.00 0.44 0.44 73 1001.7
20260505015850 66 81 5.0 5.0 0.00 0.44 0.44 74 1001.7
20260505015347 66 86 4.0 5.0 0.00 0.44 0.44 75 1001.6
20260505014844 66 78 3.0 7.0 0.00 0.44 0.44 75 1001.3
20260505014341 66 86 3.0 5.0 0.00 0.44 0.44 76 1001.4
20260505013838 66 76 1.0 6.0 0.00 0.44 0.44 76 1001.3
20260505013335 65 71 4.0 5.0 0.00 0.44 0.44 79 1001.3
20260505012833 64 82 4.0 6.0 0.00 0.44 0.44 80 1001.5
20260505012331 64 75 2.0 4.0 0.00 0.44 0.44 81 1001.2
20260505011826 64 62 3.0 4.0 0.00 0.44 0.44 80 1001.2
20260505011324 64 91 4.0 5.0 0.00 0.44 0.44 82 1001.4
20260505010819 64 76 3.0 4.0 0.00 0.44 0.44 82 1001.1
20260505010315 64 97 1.0 4.0 0.00 0.44 0.44 84 1001.3
20260505005812 64 101 2.0 3.0 0.00 0.44 0.44 85 1001.2
20260505005309 64 43 1.0 4.0 0.00 0.44 0.44 84 1001.2
20260505004806 64 93 2.0 4.0 0.00 0.44 0.44 83 1001.4
20260505004302 65 88 2.0 5.0 0.00 0.44 0.44 84 1001.2
20260505003800 64 125 6.0 9.0 0.00 0.44 0.44 84 1001.3
20260505003257 64 94 2.0 4.0 0.00 0.44 0.44 86 1001.0
20260505002753 64 86 2.0 3.0 0.00 0.44 0.44 87 1001.3
20260505002251 64 29 0.0 2.0 0.00 0.44 0.44 87 1001.4
20260505001749 64 57 1.0 2.0 0.00 0.44 0.44 87 1001.3
20260505001246 64 37 2.0 4.0 0.00 0.44 0.44 85 1001.1
20260505000742 64 315 3.0 4.0 0.00 0.44 0.44 88 1001.2
20260505000240 64 113 0.0 6.0 0.00 0.44 0.44 88 1001.7
20260504235737 64 58 3.0 4.0 0.00 0.44 0.44 92 1001.7
20260504235233 64 185 0.0 2.0 0.05 0.44 0.44 92 1002.0
20260504234730 64 70 3.0 3.0 0.12 0.44 0.44 93 1001.8
20260504234228 64 62 1.0 2.0 0.09 0.43 0.43 93 1002.1
20260504233724 63 354 3.0 3.0 0.07 0.42 0.42 93 1001.9
20260504233219 64 119 3.0 4.0 0.26 0.41 0.41 92 1001.8
20260504232717 64 268 2.0 4.0 0.54 0.41 0.41 89 1002.0
20260504232214 66 355 4.0 4.0 0.42 0.37 0.37 83 1001.8
20260504231710 68 32 2.0 4.0 0.24 0.32 0.32 74 1001.7
20260504231207 70 79 1.0 6.0 0.21 0.30 0.30 68 1001.6
20260504230703 72 159 2.0 9.0 0.05 0.27 0.27 61 1001.5
20260504230202 73 64 4.0 15.0 0.00 0.26 0.26 56 1001.7
20260504225700 73 79 4.0 7.0 0.00 0.26 0.26 57 1001.6
20260504225155 73 102 4.0 12.0 0.00 0.26 0.26 56 1001.8
20260504224653 74 132 1.0 9.0 0.00 0.26 0.26 56 1002.0
20260504224150 73 117 3.0 11.0 0.00 0.26 0.26 57 1002.0
20260504223647 73 346 2.0 6.0 0.00 0.26 0.26 58 1001.9
20260504223142 73 146 2.0 5.0 0.00 0.26 0.26 56 1001.9
20260504222640 73 103 9.0 12.0 0.00 0.26 0.26 55 1002.2
20260504222136 73 303 5.0 10.0 0.00 0.26 0.26 56 1002.3
20260504221634 73 220 5.0 6.0 0.00 0.26 0.26 55 1002.2
20260504221131 73 87 2.0 11.0 0.00 0.26 0.26 55 1002.2
20260504220627 74 6 2.0 9.0 0.00 0.26 0.26 55 1002.3
20260504220125 75 144 8.0 10.0 0.00 0.26 0.26 54 1002.3
20260504215621 75 186 1.0 4.0 0.00 0.26 0.26 56 1002.3
20260504215118 75 118 8.0 10.0 0.00 0.26 0.26 55 1002.3
20260504214614 74 288 4.0 11.0 0.00 0.26 0.26 56 1002.4
20260504214110 74 45 7.0 7.0 0.00 0.26 0.26 55 1002.3
20260504213607 74 43 4.0 8.0 0.00 0.26 0.26 55 1002.5
20260504213104 74 297 2.0 8.0 0.00 0.26 0.26 57 1002.5
20260504212600 74 228 1.0 13.0 0.00 0.26 0.26 55 1002.5
20260504212057 75 103 14.0 17.0 0.00 0.26 0.26 55 1002.5
20260504211554 75 157 3.0 11.0 0.00 0.26 0.26 58 1002.8
20260504211051 75 301 0.0 4.0 0.00 0.26 0.26 58 1002.8
20260504210549 75 75 3.0 9.0 0.00 0.26 0.26 56 1003.1
20260504210045 73 256 4.0 9.0 0.00 0.26 0.26 60 1002.7
20260504205543 74 230 5.0 8.0 0.00 0.26 0.26 57 1002.6
20260504205041 74 120 5.0 14.0 0.00 0.26 0.26 54 1002.9
20260504204538 73 287 3.0 12.0 0.00 0.26 0.26 56 1003.1
20260504204037 74 115 5.0 13.0 0.00 0.26 0.26 56 1002.8
20260504203535 74 99 4.0 13.0 0.00 0.26 0.26 56 1003.2
20260504203032 74 116 5.0 12.0 0.00 0.26 0.26 55 1003.1
20260504202527 73 102 9.0 12.0 0.00 0.26 0.26 58 1003.0
20260504202025 73 230 2.0 13.0 0.00 0.26 0.26 58 1003.2
20260504201521 74 69 6.0 14.0 0.00 0.26 0.26 57 1003.3
20260504201019 73 80 10.0 16.0 0.00 0.26 0.26 57 1003.4
20260504200515 73 76 6.0 11.0 0.00 0.26 0.26 58 1003.5
20260504200012 72 114 8.0 9.0 0.00 0.26 0.26 61 1003.3
20260504195508 71 180 3.0 16.0 0.00 0.26 0.26 59 1003.1
20260504195005 71 140 3.0 8.0 0.00 0.26 0.26 61 1003.3
20260504194501 71 104 9.0 15.0 0.00 0.26 0.26 60 1003.1
20260504193957 71 100 9.0 13.0 0.00 0.26 0.26 60 1003.3
20260504193454 71 101 4.0 7.0 0.00 0.26 0.26 60 1003.4
20260504192953 71 81 3.0 10.0 0.00 0.26 0.26 62 1003.7
20260504192450 70 71 7.0 13.0 0.00 0.26 0.26 62 1003.7
20260504191949 70 93 13.0 14.0 0.00 0.26 0.26 64 1004.0
20260504191446 69 105 5.0 7.0 0.00 0.26 0.26 66 1004.3
20260504190941 69 111 2.0 9.0 0.00 0.26 0.26 65 1004.3
20260504190437 69 113 6.0 11.0 0.00 0.26 0.26 64 1004.4
20260504185934 69 89 2.0 9.0 0.00 0.26 0.26 62 1004.4
20260504185432 70 70 5.0 10.0 0.00 0.26 0.26 62 1004.4
20260504184927 69 128 3.0 13.0 0.00 0.26 0.26 62 1004.4
20260504184423 69 105 11.0 15.0 0.00 0.26 0.26 65 1004.5
20260504183919 66 101 3.0 4.0 0.00 0.26 0.26 74 1004.7
20260504183417 65 14 6.0 8.0 0.00 0.26 0.26 71 1004.9
20260504182915 64 242 2.0 9.0 0.00 0.26 0.26 72 1004.5
20260504182411 64 268 3.0 6.0 0.00 0.26 0.26 72 1004.5
20260504181908 64 278 7.0 12.0 0.02 0.26 0.26 73 1004.5
20260504181406 64 105 0.0 11.0 0.02 0.26 0.26 73 1004.2
20260504180904 64 98 5.0 10.0 0.00 0.26 0.26 73 1004.0
20260504180403 65 76 3.0 8.0 0.00 0.26 0.26 71 1004.4
20260504175900 65 109 2.0 7.0 0.00 0.26 0.26 71 1004.3
20260504175357 66 87 7.0 8.0 0.02 0.26 0.26 70 1004.5
20260504174855 67 92 4.0 10.0 0.02 0.26 0.26 67 1004.0
20260504174352 68 87 3.0 14.0 0.00 0.26 0.26 63 1004.1
20260504173849 68 254 2.0 9.0 0.00 0.26 0.26 63 1004.7
20260504173345 69 325 3.0 5.0 0.00 0.26 0.26 62 1004.7
20260504172843 69 170 0.0 4.0 0.00 0.26 0.26 64 1004.9
20260504172339 69 125 3.0 14.0 0.00 0.26 0.26 60 1004.5
20260504171835 71 226 4.0 12.0 0.00 0.26 0.26 59 1004.8
20260504171332 72 303 0.0 13.0 0.00 0.26 0.26 58 1004.6
20260504170830 72 279 3.0 7.0 0.00 0.26 0.26 58 1005.0
20260504170326 72 266 7.0 8.0 0.00 0.26 0.26 58 1005.1
20260504160245 68 345 2.0 6.0 0.00 0.26 0.26 63 1005.5
20260504150710 64 35 2.0 2.0 0.00 0.26 0.26 73 1005.6
20260504150207 64 254 0.0 6.0 0.00 0.26 0.26 74 1005.3
20260504141136 64 88 3.0 9.0 0.00 0.26 0.26 74 1005.8
20260504140633 62 280 2.0 5.0 0.00 0.26 0.26 77 1005.7
20260504140128 61 111 4.0 10.0 0.00 0.26 0.26 77 1005.8
20260504130556 59 101 2.0 4.0 0.00 0.26 0.26 81 1006.9